[[{"header":{"parameterUnit":"m.s-1","parameterCategory":1,"la1":30.2991,"la2":30.254,"lo1":-89.0895,"lo2":-89.0444,"dy":0.0017,"dx":0.0017,"nx":28,"ny":28,"refTime":"2025-06-09T09:00:00:Z","depth":0,"parameterNumber":2,"parameterNumberName":"U-component_of_WINDS"},"data":[0,0,0,0,0,0,0,0,0,0,0,0,0,0,0,0,0,0,0,0,0,0,0,0,0,0,0,0,0,0,0,0,0,0,0,0,0,0,0,0,0,0,0,0,0,0,0,0,0,0,0,0,0,0,0,0,0,0,4.6211,4.6213,0,4.6397,4.6399,4.6401,4.6372,4.6368,4.6365,4.6362,4.6555,4.6562,4.657,0,0,0,0,0,0,0,0,0,0,0,0,0,4.5832,4.5839,4.6211,4.6213,4.6216,4.6396,4.6399,4.6401,4.6372,4.6368,4.6364,4.6361,4.6552,4.6561,4.6571,0,0,0,0,0,0,0,0,0,0,0,0,0,4.6005,4.5841,4.6211,4.6223,4.6226,4.6396,4.6399,4.6402,4.6373,4.6368,4.6363,4.6359,4.6549,4.656,4.6572,4.6743,0,0,4.6609,4.6615,0,0,0,0,0,0,0,0,4.5995,4.6019,4.6219,4.6222,4.6226,4.6356,4.6336,4.6516,4.6374,4.6317,4.6362,4.6357,4.6492,4.6509,4.6554,4.6752,4.676,4.6611,4.6618,4.6623,4.6627,0,0,0,0,0,0,0,4.5983,4.6011,4.6284,4.6222,4.6226,4.6219,4.6238,4.637,4.6429,4.6322,4.632,4.6342,4.6494,4.6543,4.6559,4.6763,4.661,4.6621,4.6628,4.6633,4.7106,4.7111,0,0,0,0,0,0,4.5968,4.6001,4.6279,4.629,4.6096,4.623,4.6251,4.6319,4.6428,4.644,4.6346,4.634,4.6524,4.6544,4.6565,4.6769,4.6623,4.6634,4.6641,4.7101,4.7107,4.7113,0,0,0,0,0,0,4.596,4.5993,4.6271,4.6145,4.618,4.6241,4.6318,4.6325,4.6374,4.6446,4.6457,4.6385,4.6521,4.6548,4.6698,4.6775,4.664,4.6651,4.7094,4.7103,4.711,4.7179,0,0,0,0,0,0,4.5949,4.599,4.6055,4.6147,4.6187,4.6401,4.6323,4.6332,4.6395,4.6389,4.6486,4.6497,4.652,4.668,4.671,4.6789,4.666,4.7088,4.7098,4.7107,4.717,4.7188,4.7204,0,0,0,0,0,4.5935,4.6069,4.6059,4.6092,4.627,4.6405,4.6428,4.645,4.6401,4.6467,4.6513,4.6494,4.6762,4.6695,4.6729,4.6813,4.7083,4.7095,4.7107,4.7162,4.7185,4.7204,0,0,0,0,0,0,4.5986,4.6081,4.6071,4.6238,4.6313,4.64,4.6484,4.6474,4.6566,4.6556,4.6581,4.6603,4.6754,4.6799,4.6723,4.6982,4.6916,4.6935,4.6947,4.6969,4.6985,4.697,4.667,0,0,0,0,0,4.6017,4.6118,4.6196,4.6336,4.6374,4.6422,4.6482,4.6493,4.6572,4.6605,4.6662,4.674,4.6841,4.6908,4.7006,4.7177,4.7196,4.7252,4.7268,4.7282,4.7298,4.7388,4.7413,4.7152,4.7152,4.7151,0,0,4.6081,4.6145,4.6208,4.6347,4.6407,4.6511,4.645,4.6563,4.664,4.6622,4.6765,4.681,4.6899,4.706,4.7133,4.7102,4.7374,4.7297,4.7307,4.7316,4.7403,4.7428,4.745,4.716,4.7158,4.7157,0,0,4.625,4.631,4.6431,4.6492,4.6583,4.6614,4.6643,4.6731,4.6759,4.6904,4.6891,4.6984,4.7159,4.7222,4.7277,4.7468,4.7453,4.7499,4.7587,4.7675,4.7696,4.7714,4.7779,4.7802,4.7515,4.7515,4.7515,0,4.6318,4.6474,4.6495,4.6609,4.667,4.6657,4.6779,4.6837,4.6956,4.6998,4.6961,4.7178,4.7238,4.7411,4.7457,4.7504,4.7536,4.7487,4.7691,4.771,4.7727,4.7789,4.7814,4.752,4.752,4.7519,4.7519,0,4.6552,4.6661,4.6748,4.686,4.6931,4.7049,4.7087,4.7156,4.7161,4.7195,4.7341,4.7412,4.7522,4.7565,4.7571,4.7738,4.7715,4.7685,4.7618,4.7756,4.7815,4.7839,4.7527,4.7525,4.7524,4.7523,0,0,4.6759,4.688,4.6911,4.696,4.7059,4.7143,4.726,4.7366,4.7423,4.7506,4.7603,4.7751,4.7722,4.7784,4.7797,4.7875,4.8018,4.7835,4.7837,4.7863,4.8203,4.8223,4.8251,4.8009,4.8014,4.8018,4.8194,0,4.6935,4.7139,4.7161,4.7344,4.7442,4.7431,4.7532,4.7603,4.7638,4.7727,4.7767,4.787,4.7826,4.7863,4.794,4.7984,4.8086,4.7972,4.8098,4.8103,4.8073,4.8282,4.8304,4.8467,4.8218,4.8222,4.8225,0,4.7168,4.7254,4.7446,4.7528,4.757,4.7661,4.7758,4.7844,4.7924,4.7944,4.8013,4.8015,4.8134,4.8064,4.8228,4.815,4.8203,4.8233,4.8239,4.825,4.817,4.8295,4.8521,4.8544,4.8262,4.8259,4.8256,0,4.7295,4.746,4.7595,4.7638,4.7738,4.7801,4.7846,4.7921,4.7982,4.8068,4.8108,4.8208,4.8262,4.8338,4.8367,4.8314,4.8528,4.8461,4.8546,4.8546,4.859,4.8587,4.8824,4.863,4.8629,4.8629,4.8628,0,4.7488,4.7605,4.7653,4.7736,4.7866,4.7889,4.8018,4.806,4.8126,4.8216,4.8214,4.8299,4.8332,4.8423,4.8446,4.8576,4.8602,4.862,4.8624,4.8619,4.8616,4.8652,4.864,4.8635,4.8634,4.8633,4.8631,0,4.7652,4.7689,4.7834,4.7916,4.7939,4.8031,4.8101,4.818,4.8214,4.8328,4.8356,4.841,4.8515,4.8552,4.8681,4.8697,4.8847,4.8843,4.8819,4.8819,4.8901,4.8891,4.9168,4.9204,4.8988,4.899,4.8992,0,4.7771,4.786,4.7951,4.801,4.8056,4.8153,4.8215,4.8241,4.8306,4.8402,4.847,4.8574,4.8659,4.8829,4.8879,4.8977,4.8973,4.9064,4.8988,4.8978,4.8971,4.8964,4.8972,4.9077,4.9079,4.9081,4.9082,0,4.7978,4.7991,4.808,4.8176,4.8249,4.8326,4.84,4.8449,4.8486,4.8559,4.8666,4.8732,4.8862,4.8965,4.9064,4.911,4.9102,4.9106,4.913,4.9124,4.9105,4.9113,4.8854,4.9099,4.9097,4.9096,4.9095,4.9094,4.8121,4.8199,4.8273,4.8372,4.843,4.8499,4.8576,4.8619,4.8708,4.8815,4.8825,4.894,4.9015,4.9148,4.9198,4.9288,4.9263,4.9299,4.9308,4.9315,4.932,4.9092,4.9307,4.9306,4.9306,4.9306,4.9305,0,4.8325,4.8372,4.8463,4.8565,4.8642,4.8627,4.8708,4.8773,4.8873,4.8944,4.9027,4.9148,4.9248,4.9305,4.9404,4.9465,4.9463,4.949,4.9484,4.9494,4.9338,4.9306,4.9489,4.9489,4.9489,4.9489,4.9489,4.9489,4.844,4.8569,4.8591,4.8748,4.8795,4.8905,4.8952,4.9015,4.9071,4.9206,4.9288,4.9324,4.9389,4.9493,4.9582,4.9597,4.9632,4.966,4.9672,4.9525,4.9506,4.9487,4.9457,4.9669,4.9669,4.982,4.9821,4.9822]},{"header":{"parameterUnit":"m.s-1","parameterCategory":1,"la1":30.2991,"la2":30.254,"lo1":-89.0895,"lo2":-89.0444,"dy":0.0017,"dx":0.0017,"nx":28,"ny":28,"refTime":"2025-06-09T09:00:00:Z","depth":0,"parameterNumber":3,"parameterNumberName":"V-component_of_WINDS"},"data":[0,0,0,0,0,0,0,0,0,0,0,0,0,0,0,0,0,0,0,0,0,0,0,0,0,0,0,0,0,0,0,0,0,0,0,0,0,0,0,0,0,0,0,0,0,0,0,0,0,0,0,0,0,0,0,0,0,0,1.5214,1.5215,0,1.5299,1.53,1.5301,1.529,1.5289,1.5288,1.5286,1.5374,1.5378,1.5381,0,0,0,0,0,0,0,0,0,0,0,0,0,1.5042,1.5046,1.5214,1.5215,1.5216,1.5299,1.53,1.5301,1.5291,1.5289,1.5287,1.5286,1.5373,1.5377,1.5381,0,0,0,0,0,0,0,0,0,0,0,0,0,1.5121,1.5047,1.5214,1.5221,1.5222,1.5298,1.53,1.5301,1.5291,1.5289,1.5287,1.5285,1.5371,1.5377,1.5382,1.5457,0,0,1.5399,1.5401,0,0,0,0,0,0,0,0,1.5117,1.5127,1.5219,1.522,1.5222,1.5282,1.5271,1.5354,1.5291,1.5265,1.5286,1.5284,1.5345,1.5353,1.5373,1.5461,1.5465,1.5399,1.5402,1.5405,1.5406,0,0,0,0,0,0,0,1.5111,1.5124,1.5248,1.522,1.5222,1.5219,1.5228,1.5287,1.5316,1.5267,1.5266,1.5277,1.5346,1.5368,1.5375,1.5466,1.5399,1.5404,1.5407,1.5409,1.5618,1.562,0,0,0,0,0,0,1.5104,1.5119,1.5245,1.525,1.5163,1.5224,1.5234,1.5265,1.5315,1.5321,1.5278,1.5276,1.536,1.5369,1.5378,1.5468,1.5405,1.541,1.5413,1.5616,1.5619,1.5621,0,0,0,0,0,0,1.51,1.5115,1.5241,1.5184,1.52,1.5229,1.5264,1.5268,1.529,1.5323,1.5328,1.5296,1.5358,1.537,1.5437,1.5471,1.5412,1.5417,1.5613,1.5617,1.562,1.565,0,0,0,0,0,0,1.5095,1.5114,1.5143,1.5185,1.5203,1.5299,1.5266,1.5271,1.5299,1.5297,1.5341,1.5347,1.5358,1.5429,1.5442,1.5478,1.5421,1.561,1.5615,1.5619,1.5646,1.5654,1.5661,0,0,0,0,0,1.5089,1.5149,1.5145,1.516,1.524,1.5301,1.5312,1.5323,1.5302,1.5331,1.5352,1.5345,1.5465,1.5436,1.5451,1.5488,1.5608,1.5614,1.5618,1.5643,1.5653,1.5661,0,0,0,0,0,0,1.5111,1.5155,1.515,1.5225,1.526,1.5299,1.5337,1.5333,1.5375,1.5371,1.5383,1.5393,1.546,1.5481,1.5448,1.5563,1.5534,1.5542,1.5547,1.5557,1.5564,1.5558,1.5426,0,0,0,0,0,1.5124,1.517,1.5206,1.5268,1.5285,1.5308,1.5335,1.5341,1.5377,1.5392,1.5418,1.5453,1.5499,1.5529,1.5572,1.5648,1.5658,1.5682,1.5689,1.5695,1.5702,1.5743,1.5754,1.5638,1.5638,1.5638,0,0,1.5153,1.5182,1.521,1.5273,1.5301,1.5347,1.5321,1.5372,1.5407,1.5399,1.5464,1.5484,1.5524,1.5595,1.5628,1.5615,1.5736,1.5701,1.5706,1.571,1.5749,1.576,1.577,1.5642,1.5641,1.564,0,0,1.5228,1.5255,1.531,1.5337,1.5378,1.5393,1.5406,1.5446,1.5459,1.5523,1.5518,1.5559,1.5638,1.5667,1.5691,1.5775,1.577,1.5789,1.5828,1.5867,1.5877,1.5885,1.5914,1.5925,1.5796,1.5796,1.5796,0,1.5259,1.5329,1.5339,1.539,1.5417,1.5412,1.5467,1.5493,1.5546,1.5565,1.5549,1.5646,1.5673,1.575,1.577,1.5791,1.5806,1.5785,1.5874,1.5883,1.589,1.5919,1.593,1.5798,1.5798,1.5798,1.5797,0,1.5364,1.5413,1.5452,1.5503,1.5535,1.5588,1.5605,1.5636,1.5637,1.5653,1.5718,1.5749,1.5799,1.5817,1.5821,1.5895,1.5885,1.5872,1.5843,1.5903,1.593,1.5941,1.5801,1.58,1.58,1.5799,0,0,1.5458,1.5512,1.5526,1.5549,1.5592,1.563,1.5682,1.573,1.5756,1.5792,1.5836,1.5901,1.5888,1.5916,1.5922,1.5956,1.602,1.5938,1.5939,1.5953,1.6103,1.6114,1.6127,1.6016,1.6018,1.602,1.61,0,1.5538,1.5631,1.5639,1.5722,1.5767,1.576,1.5806,1.5837,1.5853,1.5892,1.5909,1.5955,1.5935,1.5952,1.5985,1.6005,1.6051,1.5999,1.6057,1.6059,1.6048,1.6141,1.6153,1.6227,1.6111,1.6113,1.6114,0,1.5645,1.5683,1.577,1.5806,1.5825,1.5866,1.5909,1.5948,1.5983,1.5991,1.6021,1.6022,1.6075,1.6043,1.6115,1.608,1.6104,1.6117,1.612,1.6127,1.6091,1.615,1.6251,1.6262,1.6131,1.6129,1.6128,0,1.5705,1.5778,1.5839,1.5859,1.5902,1.5931,1.595,1.5983,1.601,1.6048,1.6066,1.611,1.6134,1.6167,1.6179,1.6155,1.6251,1.622,1.626,1.6259,1.6282,1.628,1.6388,1.6295,1.6295,1.6295,1.6295,0,1.5794,1.5847,1.5866,1.5904,1.5963,1.5972,1.603,1.6048,1.6077,1.6118,1.6115,1.6153,1.6166,1.6206,1.6215,1.6274,1.6285,1.6293,1.6295,1.6294,1.6293,1.6311,1.6306,1.6298,1.6297,1.6297,1.6296,0,1.5872,1.5887,1.5953,1.5988,1.5998,1.604,1.607,1.6106,1.6119,1.6171,1.6183,1.6205,1.6252,1.6267,1.6324,1.633,1.6398,1.6395,1.6386,1.6387,1.6426,1.6422,1.6549,1.6566,1.6462,1.6463,1.6464,0,1.5928,1.5969,1.6007,1.6034,1.6055,1.6098,1.6126,1.6135,1.6164,1.6206,1.6237,1.6283,1.632,1.6395,1.6416,1.6459,1.6458,1.6499,1.6464,1.6461,1.6459,1.6456,1.646,1.6506,1.6507,1.6508,1.6509,0,1.6026,1.6031,1.6071,1.6113,1.6146,1.618,1.6213,1.6235,1.6249,1.6281,1.6329,1.6358,1.6415,1.6461,1.6504,1.6523,1.6519,1.6519,1.6531,1.6531,1.6524,1.6528,1.6405,1.6517,1.6516,1.6515,1.6515,1.6515,1.6095,1.6131,1.6163,1.6207,1.6232,1.6262,1.6298,1.6315,1.6355,1.6402,1.6405,1.6456,1.6488,1.6546,1.6567,1.6607,1.6595,1.6612,1.6616,1.6621,1.6624,1.6516,1.6615,1.6615,1.6615,1.6615,1.6614,0,1.6194,1.6214,1.6254,1.6299,1.6334,1.6325,1.636,1.6389,1.6434,1.6465,1.6501,1.6555,1.6599,1.6622,1.6666,1.6693,1.6692,1.6704,1.6703,1.6707,1.6632,1.6618,1.6704,1.6704,1.6704,1.6704,1.6704,1.6704,1.6249,1.6308,1.6316,1.6388,1.6407,1.6457,1.6478,1.6505,1.6529,1.659,1.6626,1.664,1.6668,1.6713,1.6752,1.6758,1.6774,1.6788,1.6792,1.6722,1.6713,1.6704,1.6691,1.6791,1.6791,1.6864,1.6865,1.6865]}]]